Amritsar, India

8:11 PM IST on August 27, 2016 (GMT +0530)
Amritsar

Weather History for VIAR - November, 2012

Change the Weather History Date:

Saturday, November 17, 2012

  Actual Average Record
Temperature  
Mean Temperature 63 °F -  
Max Temperature 79 °F 77 °F 82 °F (1996)
Min Temperature 47 °F 49 °F 43 °F (2014)
Degree Days  
Heating Degree Days 2    
Growing Degree Days 13 (Base 50)    
Moisture  
Dew Point 55 °F    
Average Humidity 79    
Maximum Humidity 100    
Minimum Humidity 35    
Precipitation  
Precipitation 0.00 in - - ()
Sea Level Pressure  
Sea Level Pressure 30.03 in    
Wind  
Wind Speed 0 mph ()    
Max Wind Speed 4 mph    
Max Gust Speed -    
Visibility 0.7 miles    
Events Fog    
Averages and records for this station are not official NWS values.
T = Trace of Precipitation, MM = Missing Value Source: Averaged Metar Reports

Daily Weather History Graph

Daily Weather History Graph

Search for Another Location

Airport or City:

Trip Planner

Search our weather history database for the weather conditions in past years. The results will help you decide how hot, cold, wet, or windy it might be!

Date:

Astronomy

Nov. 17, 2012 Rise Set
Actual Time 7:00 AM IST 5:30 PM IST
Civil Twilight 6:34 AM IST 5:56 PM IST
Nautical Twilight 6:05 AM IST 6:25 PM IST
Astronomical Twilight 5:36 AM IST 6:54 PM IST
Moon 10:21 AM IST (11/17) 9:08 PM IST (11/17)
Length of Visible Light 11h 21m
Length of Day
10h 29m
Waxing Crescent, 16% of the Moon is Illuminated
Nov 17
Waxing Crescent
Nov 20
First Quarter
Nov 28
Full
Dec 6
Last Quarter
Dec 13
New

Hourly Weather History & Observations

Time (IST) Temp. Dew Point Humidity Pressure Visibility Wind Dir Wind Speed Gust Speed Precip Events Conditions
12:00 AM 57.2 °F 55.4 °F 94% 30.06 in 0.7 mi Calm Calm - N/A   Mist
12:30 AM 57.2 °F 55.4 °F 94% 30.06 in 0.7 mi Calm Calm - N/A   Mist
1:00 AM 55.4 °F 55.4 °F 100% 30.04 in 0.6 mi Calm Calm - N/A Fog Fog
1:30 AM 55.4 °F 55.4 °F 100% 30.04 in 0.3 mi Calm Calm - N/A Fog Fog
2:00 AM 55.4 °F 55.4 °F 100% 30.04 in 0.2 mi Calm Calm - N/A Fog Fog
2:30 AM 54 °F 54 °F 100% 30.05 in 0 mi Calm Calm - - Fog Partial Fog
2:30 AM 53.6 °F 53.6 °F 100% 30.04 in 0.2 mi Calm Calm - N/A Fog Fog
3:00 AM 53.6 °F 53.6 °F 100% 30.04 in 0.2 mi Calm Calm - N/A Fog Fog
3:30 AM 51.8 °F 51.8 °F 100% 30.04 in 0.2 mi Calm Calm - N/A Fog Fog
4:00 AM 51.8 °F 51.8 °F 100% 30.04 in 0.2 mi Calm Calm - N/A Fog Fog
5:00 AM 50.0 °F 50.0 °F 100% 30.04 in 0.2 mi Calm Calm - N/A Fog Fog
5:30 AM 50 °F 50 °F 100% 30.05 in 0 mi Calm Calm - - Fog Partial Fog
5:30 AM 50.0 °F 50.0 °F 100% 30.04 in 0.2 mi Calm Calm - N/A Fog Fog
6:00 AM 48.2 °F 48.2 °F 100% 30.04 in 0.2 mi Calm Calm - N/A Fog Fog
6:30 AM 48.2 °F 48.2 °F 100% 30.04 in 0.2 mi Calm Calm - N/A Fog Fog
7:00 AM 48.2 °F 48.2 °F 100% 30.04 in 0.2 mi Calm Calm - N/A Fog Fog
7:30 AM 48.2 °F 48.2 °F 100% 30.04 in 0.2 mi Calm Calm - N/A Fog Fog
8:30 AM 52 °F 52 °F 99% 30.09 in 0 mi Calm Calm - - Fog Partial Fog
8:30 AM 51.8 °F 51.8 °F 100% 30.06 in 0.4 mi Calm Calm - N/A Fog Fog
9:30 AM 57.2 °F 55.4 °F 94% 30.09 in 0.5 mi Calm Calm - N/A Fog Fog
10:00 AM 59.0 °F 57.2 °F 94% 30.09 in 0.5 mi Calm Calm - N/A Fog Fog
10:30 AM 60.8 °F 57.2 °F 88% 30.09 in 0.5 mi Calm Calm - N/A Fog Fog
11:00 AM 62.6 °F 55.4 °F 77% 30.09 in 0.6 mi Calm Calm - N/A   Mist
11:30 AM 67 °F 56 °F 61% 30.07 in 1 mi Calm Calm - -   Haze
11:30 AM 66.2 °F 57.2 °F 73% 30.09 in 0.7 mi Calm Calm - N/A   Haze
12:00 PM 69.8 °F 57.2 °F 64% 30.06 in 0.9 mi Calm Calm - N/A   Haze
12:30 PM 71.6 °F 55.4 °F 57% 30.06 in 1.1 mi Calm Calm - N/A   Haze
1:00 PM 73.4 °F 53.6 °F 50% 30.06 in 1.2 mi Calm Calm - N/A   Smoke
1:30 PM 75.2 °F 53.6 °F 47% 30.04 in 1.2 mi Variable 2.3 mph - N/A   Smoke
2:00 PM 77.0 °F 53.6 °F 44% 30.01 in 1.6 mi Variable 2.3 mph - N/A   Smoke
2:30 PM 77 °F 54 °F 35% 29.99 in 1 mi NW 3.5 mph - -   Smoke
2:30 PM 77.0 °F 53.6 °F 44% 30.01 in 1.6 mi NW 3.5 mph - N/A   Smoke
3:00 PM 78.8 °F 51.8 °F 39% 30.01 in 2.2 mi Variable 2.3 mph - N/A   Smoke
3:30 PM 78.8 °F 51.8 °F 39% 30.01 in 2.2 mi NW 3.5 mph - N/A   Smoke
4:00 PM 78.8 °F 53.6 °F 42% 30.01 in 2.2 mi Variable 1.2 mph - N/A   Smoke
4:30 PM 78.8 °F 53.6 °F 42% 29.98 in 2.2 mi Variable 1.2 mph - N/A   Smoke
5:00 PM 77.0 °F 53.6 °F 44% 30.01 in - Variable 1.2 mph - N/A   Smoke
5:30 PM 74 °F 59 °F 49% 29.97 in 1 mi Calm Calm - -   Haze
6:00 PM 69.8 °F 60.8 °F 73% 29.98 in 1.2 mi Calm Calm - N/A   Haze
6:30 PM 69.8 °F 60.8 °F 73% 30.01 in 1.2 mi Calm Calm - N/A   Haze
7:00 PM 68.0 °F 60.8 °F 78% 30.01 in 1.2 mi Calm Calm - N/A   Haze
7:30 PM 68.0 °F 60.8 °F 78% 30.01 in 1.2 mi Calm Calm - N/A   Haze
8:30 PM 65 °F 60 °F 80% 30.00 in 1 mi Calm Calm - -   Mist
8:30 PM 64.4 °F 60.8 °F 88% 30.01 in 0.7 mi Calm Calm - N/A   Mist
9:00 PM 62.6 °F 60.8 °F 94% 30.01 in 0.6 mi Calm Calm - N/A   Mist
9:30 PM 62.6 °F 57.2 °F 82% 30.01 in 0.6 mi Calm Calm - N/A   Mist
10:00 PM 62.6 °F 57.2 °F 82% 30.01 in 0.5 mi Calm Calm - N/A Fog Fog
10:30 PM 60.8 °F 57.2 °F 88% 30.01 in 0.5 mi Calm Calm - N/A Fog Fog
11:00 PM 60.8 °F 57.2 °F 88% 30.01 in 0.5 mi Calm Calm - N/A Fog Fog
11:30 PM 59 °F 55 °F 84% 30.00 in 0 mi Calm Calm - -   Mist
11:30 PM 59.0 °F 55.4 °F 88% 30.01 in 0.5 mi Calm Calm - N/A Fog Fog